Location: *
(29.1167°S, 130.0000°E)
Time: 00:08:36
(UTC+00:00)

Cosmos 2360 Rocket - Pass Details

Date: 21 July 2019
Orbit: 835 x 844 km, 71.0° (Epoch: 23 August)

Event Time Altitude Azimuth Distance (km) Brightness Sun altitude
Rises 09:36:48 0° 191° (S) 3,429 5.3 -12.0°
Reaches altitude 10° 09:39:26 10° 183° (S) 2,487 4.5 -12.5°
Maximum altitude 09:44:47 40° 114° (ESE) 1,228 2.6 -13.6°
Drops below altitude 10° 09:50:04 10° 44° (NE) 2,459 4.3 -14.7°
Sets 09:52:38 0° 37° (NE) 3,385 5.1 -15.3°
